Orbital Elements at Epoch 2459000.5 (2020-May-31.0) TDB
Reference: JPL 32 (heliocentric ecliptic J2000)
Element | Value | Uncertainty (1-sigma) | Units |
e | .06585487914018998 | 3.6985e-08 | |
a | 2.204543238193445 | 6.281e-09 | au |
q | 2.059363309682893 | 8.3164e-08 | au |
i | 2.783224387416796 | 3.1828e-06 | deg |
node | 228.0188293907114 | 8.1891e-05 | deg |
peri | 304.4062153565208 | 8.6022e-05 | deg |
M | 323.140536050769 | 2.7114e-05 | deg |
tp | 2459122.911684079011 (2020-Sep-30.41168408) | 9.0176e-05 | TDB |
period | 1195.57371559017 3.27 | 5.1095e-06 1.399e-08 | d yr |
n | .3011106678790555 | 1.2868e-09 | deg/d |
Q | 2.349723166703998 | 6.6946e-09 | au |
|
| | Orbit Determination Parameters
Additional Information
|